This demonstration page uses our WeatherBlox Daily Observations layout. Learn more.

Left ArrowRight Arrow

30.21309, -93.2044

Hourly Observations for January 19, 2022

Temp ( °F °C ) Dew Point ( °F °C ) Humidity (%) Winds ( mph kmh ) Pressure ( in mb ) Visibility ( mi km ) Precip ( " mm )
12:15 am 00:15 Cloudy 56 13.3 53 11.7 90 90 SSE 9 15 30.02 1017 10 16 0.00 0.00
12:35 am 00:35 Mostly Cloudy 55 13 53 11.4 90 90 SE 9 15 30.03 1017 10 16 0.00 0.00
12:55 am 00:55 Partly Cloudy 55 12.7 53 11.4 92 92 SE 7 11 30.03 1017 10 16 0.00 0.00
1:15 am 01:15 Cloudy 56 13.5 54 12.1 91 91 SSE 6 9 30.04 1017 10 16 0.00 0.00
1:35 am 01:35 Cloudy 56 13.6 54 12.2 91 91 SSE 6 9 30.03 1017 10 16 0.00 0.00
1:55 am 01:55 Cloudy 56 13.4 54 12 91 91 SSE 6 9 30.03 1017 10 16 0.00 0.00
2:15 am 02:15 Cloudy 56 13.2 54 12 93 93 SE 5 7 30.02 1017 10 16 0.00 0.00
2:35 am 02:35 Cloudy 57 14 55 12.5 91 91 SSE 8 13 30.02 1017 10 16 0.00 0.00
2:55 am 02:55 Cloudy 56 13.6 54 12.2 91 91 SSE 6 9 30.01 1016 10 16 0.00 0.00
3:15 am 03:15 Cloudy 57 13.9 54 12.4 91 91 S 6 9 30.01 1016 10 16 0.00 0.00
3:35 am 03:35 Mostly Cloudy 56 13.1 53 11.9 93 93 SSE 7 11 30.00 1016 10 16 0.00 0.00
3:55 am 03:55 Mostly Cloudy 56 13.2 54 12.1 93 93 SSE 7 11 30.00 1016 10 16 0.00 0.00
4:15 am 04:15 Mostly Cloudy 54 12.4 52 11.3 93 93 SSE 7 11 29.99 1016 10 16 0.00 0.00
4:35 am 04:35 Partly Cloudy 55 13 54 12 94 94 SSE 7 11 29.99 1016 10 16 0.00 0.00
4:55 am 04:55 Clear 54 12.4 53 11.4 94 94 SSE 7 11 29.99 1016 10 16 0.00 0.00
5:15 am 05:15 Clear 54 12.2 52 11.3 94 94 SSE 7 11 29.99 1016 10 16 0.00 0.00
5:35 am 05:35 Clear 55 12.8 53 11.9 94 94 SSE 8 13 29.98 1015 10 16 0.00 0.00
6:00 am 06:00 Mostly Clear 55 13 54 12 94 94 SSE 8 13 29.98 1015 10 16 0.00 0.00
6:45 am 06:45 Mostly Cloudy 57 14 55 13 94 94 S 7 11 30.00 1016 10 16 0.00 0.00
7:50 am 07:50 Mostly Cloudy 61 16 57 14 88 88 S 7 11 30.02 1017 10 16 0.00 0.00
8:45 am 08:45 Mostly Cloudy 63 17 59 15 88 88 S 13 20 30.01 1016 10 16 0.00 0.00
11:55 am 11:55 Mostly Cloudy 75 24 57 14 54 54 S 16 26 30.02 1017 N/A 0.00 0.00
12:45 pm 12:45 Cloudy 73 23 59 15 61 61 S 16 26 29.99 1016 10 16 0.00 0.00
1:55 pm 13:55 Mostly Cloudy 75 24 61 16 61 61 SSW 17 28 29.96 1015 10 16 0.00 0.00
2:45 pm 14:45 Mostly Cloudy 75 24 61 16 61 61 SSW 23 37 29.94 1014 10 16 0.00 0.00
3:45 pm 15:45 Mostly Cloudy 73 23 59 15 61 61 S 23 37 29.94 1014 10 16 0.00 0.00
4:45 pm 16:45 Partly Cloudy 72 22 61 16 69 69 S 17 28 29.94 1014 10 16 0.00 0.00
5:45 pm 17:45 Partly Cloudy 70 21 61 16 73 73 S 12 19 29.95 1014 10 16 0.00 0.00
6:55 pm 18:55 Partly Cloudy 66 19 63 17 88 88 S 6 9 29.95 1014 10 16 0.00 0.00
7:05 pm 19:05 Mostly Cloudy with Thunderstorms 66 19 63 17 88 88 S 6 9 29.95 1014 10 16 0.00 0.00
7:45 pm 19:45 Mostly Cloudy with Thunderstorms 66 19 63 17 88 88 VRB 7 11 29.98 1015 10 16 0.00 0.00
8:45 pm 20:45 Mostly Cloudy 64 18 63 17 94 94 Calm 29.98 1015 10 16 0.00 0.00
9:45 pm 21:45 Mostly Cloudy 64 18 63 17 94 94 Calm 29.97 1015 10 16 0.00 0.00
10:15 pm 22:15 Cloudy with Nearby Thunderstorms 65 18.2 62 16.7 91 91 SSW 3 6 29.98 1015 10 16 0.00 0.00
10:35 pm 22:35 Cloudy with Thunderstorms 66 18.7 62 16.7 88 88 Calm 29.98 1015 10 16 0.00 0.00
10:55 pm 22:55 Cloudy 65 18.2 62 16.8 92 92 N 9 15 29.99 1016 10 16 0.00 0.00
11:15 pm 23:15 Cloudy with Nearby Thunderstorms 64 17.7 61 16 90 90 NE 7 11 29.98 1015 10 16 0.00 0.00
11:35 pm 23:35 Cloudy with Nearby Thunderstorms 64 17.5 60 15.7 89 89 NNE 6 9 29.98 1015 10 16 0.00 0.00
11:55 pm 23:55 Cloudy with Nearby Thunderstorms 63 17.1 60 15.4 90 90 NE 8 13 29.99 1016 7 11 0.01 0.25

Powered by AerisWeather